Regional Weather Roundup
Issued by NWS Sioux Falls, SD

Home | Current Version | Previous Version | Graphics & Text | Print | Product List | Glossary On
Versions: 1 2 3 4 5 6 7 8 9 10 11 12 13 14 15 16 17 18 19 20 21 22 23 24 25 26 27 28 29 30 31 32 33 34 35 36 37 38 39 40 41 42 43 44 45 46 47 48 49 50
861
ASUS43 KFSD 230302
RWRFSD

WEATHER ROUNDUP FOR SE SOUTH DAKOTA/SW MINNESOTA/NW IOWA
NATIONAL WEATHER SERVICE SIOUX FALLS SD
1000 PM CDT FRI JUL 22 2016

NOTE: "FAIR" INDICATES FEW OR NO CLOUDS BELOW 12,000 FEET WITH NO
SIGNIFICANT WEATHER AND OR OBSTRUCTIONS TO VISIBILITY.


SDZ038>040-050-052>070-230400-
SOUTHEAST SOUTH DAKOTA

CITY           SKY/WX    TMP DP  RH WIND       PRES   REMARKS
BROOKINGS      CLOUDY    80  73  79 SE10      29.96R
CHAMBERLAIN    MOCLDY    84  78  82 E5        29.93R HX  95
HURON          CLOUDY    84  75  74 E8        29.90R
MADISON        FAIR      77  77 100 E3        29.97R
MITCHELL       CLOUDY    84  78  82 E7        29.91R HX  95
SIOUX FALLS    MOCLDY    84  78  82 SE10      29.92S HX  95
WINNER         FAIR      87  76  69 SE12      29.93R HX  97
YANKTON        PTCLDY    84  77  79 E5        29.89S
$$

MNZ071-072-080-081-089-090-097-098-230400-
SOUTHWEST MINNESOTA

CITY           SKY/WX    TMP DP  RH WIND       PRES   REMARKS
FAIRMONT       MOCLDY    81  48  32 E6        29.97R
JACKSON        MOCLDY    81  77  89 SE6       29.98S
LUVERNE        CLOUDY    81  75  83 E6        29.95S
MARSHALL       MOCLDY    81  70  69 E8        29.97R
MONTEVIDEO     MOCLDY    73  70  88 SE7       29.98R
REDWOOD FALLS  PTCLDY    81  69  67 E8        29.95R
TRACY          CLOUDY    80  70  73 SE7       29.97R
WINDOM         CLOUDY    81  75  83 E5        29.97R
WORTHINGTON    CLOUDY    80  79  96 E8        29.97S
$$

IAZ001>003-012>014-020>022-031-032-NEZ013-014-SDZ071-230400-
NORTHWEST IOWA

CITY           SKY/WX    TMP DP  RH WIND       PRES   REMARKS
CHEROKEE       CLOUDY    84  81  93 E7        29.95R HX  98
DENISON        CLOUDY    82  79  89 E8        29.92R
ESTHERVILLE    CLOUDY    80  79  96 SE7       29.97S
LE MARS        MOCLDY    86  79  79 SE3       29.93S HX  99
SHELDON        CLOUDY    82  81  94 E8        29.94R HX  95
SIOUX CITY     NOT AVBL
SPENCER        CLOUDY    82  77  84 SE10      29.95F
STORM LAKE     CLOUDY    82  79  89 SE5       29.97S
$$

ABBREVIATIONS USED IN REMARKS
   TC - TEMPERATURE IN CELSIUS
  WCI - WIND CHILL INDEX
   HX - HEAT INDEX
  VSB - VISIBILITY





USA.gov is the U.S. government's official web portal to all federal, state and local government web resources and services.